Skip Page Navigation
NASA JPL Caltech
NASA Logo - Jet Propulsion Laboratory + View the NASA Portal
+ Center for Near-Earth Object Studies
JPL Home Earth Solar System Stars & Galaxies Technology
JPL Solar System Dynamics
BODIES ORBITS EPHEMERIDES TOOLS PHYSICAL DATA DISCOVERY FAQ SITE MAP
JPL Small-Body Database Browser
Search: [ help ]  
(2019 JE)
Classification: Apollo [NEO]          SPK-ID: 3841673
Ephemeris | Orbit Diagram | Orbital Elements | Mission Design | Physical Parameters | Close-Approach Data ]

[ show orbit diagram ]
Orbital Elements at Epoch 2459200.5 (2020-Dec-17.0) TDB
Reference: JPL 8 (heliocentric ecliptic J2000)
 Element Value Uncertainty (1-sigma)   Units 
e .5125188761216951 5.9864e-06  
a 2.081673091292249 2.5676e-05 au
q 1.014776338090371 5.8266e-08 au
i 3.698677497327619 3.5418e-05 deg
node 222.2262678286903 6.696e-06 deg
peri 1.009067728637251 5.1382e-05 deg
M 194.4612836701679 0.0036 deg
tp 2459704.945557587299
(2022-May-05.44555759)
0.020303 TDB
period 1097.026754572585
3.00
0.020297
5.557e-05
d
yr
n .3281597267336113 6.0715e-06 deg/d
Q 3.148569844494128 3.8836e-05 au
  Orbit Determination Parameters
   # obs. used (total)      97  
   # delay obs. used      0  
   # Doppler obs. used      1  
   data-arc span      7 days  
   first obs. used      2019-05-01  
   last obs. used      2019-05-08  
   planetary ephem.      DE441  
   SB-pert. ephem.      SB441-N16  
   condition code      4  
   norm. resid. RMS      .28587  
   source      ORB  
   producer      Otto Matic  
   solution date      2021-Apr-15 21:14:52  

Additional Information
 Earth MOID = .00540447 au 
 Jupiter MOID = 1.83608 au 
 T_jup = 3.584 
[ show covariance matrix ]

Ephemeris | Orbit Diagram | Orbital Elements | Mission Design | Physical Parameters | Close-Approach Data ]

Physical Parameter Table
Parameter Symbol Value Units Sigma Reference Notes
absolute magnitude H 26.2   .46142 MPO467585 autocmod 2.7

[ hide close-approach data ]
Close-Approach Data   ...sorted by Date/Time (TDB)
Date/Time (TDB) Time Uncertainty
(days_HH:MM)
Body Nominal Distance (au) Minimum Distance (au) Maximum Distance (au) V-relative (km/s) V-infinity (km/s) JD (TDB) Time Uncertainty (minutes) Semi-major axis (km) Semi-minor axis (km) range-LOV angle (deg) N-sigma BP Orbit Ref. Reference Modified
1975-Dec-17 09:09 05:31 Jupiter 1.95726046883915 1.95695921817646 1.9575621631413 1.93530023889577 1.69701755366019 2442763.881591580 330.967353000785 52791.0230444662 124.398805149026 65.1429773327773 1479212.84700299 T 8 CATAB v2.0g-lin.ifort 2021-Apr-15 21:14:53 2021-Apr-15 21:14
1987-Nov-29 14:53 02:58 Jupiter 1.92367198135037 1.92353573699515 1.92380834820137 1.99543529645609 1.76100286900922 2447129.119930332 177.978493049511 27028.9669230845 103.730927560854 68.3169644104256 1758274.1902042 T 8 CATAB v2.0g-lin.ifort 2021-Apr-15 21:14:53 2021-Apr-15 21:14
1999-Nov-06 11:12 00:37 Jupiter 1.89678183813632 1.8967666596596 1.89679702287822 2.04033885573885 1.80827743210186 2451488.966549756 36.5386026081605 6033.87020663982 79.6820538922703 69.9963257365266 1829506.84933249 T 8 CATAB v2.0g-lin.ifort 2021-Apr-15 21:14:53 2021-Apr-15 21:14
2004-Jul-04 05:09 00:28 Earth 0.462576411084603 0.462313240776918 0.462839587700716 20.8901073219475 20.8898315874723 2453190.714638251 27.5252118447099 13397.0118218603 33.2819847970855 -11.6045156488617 365524.695284816 T 8 CATAB v2.0g-lin.ifort 2021-Apr-15 21:14:53 2021-Apr-15 21:14
2007-Jun-26 11:54 00:58 Earth 0.321335139185842 0.320795001751056 0.321875298350266 16.7641980674859 16.7637034405527 2454277.995583372 57.5426695532537 27255.4246112043 26.6183143242081 -8.80666800759669 235214.158412596 T 8 CATAB v2.0g-lin.ifort 2021-Apr-15 21:14:53 2021-Apr-15 21:14
2010-Jun-15 08:17 01:49 Earth 0.181838162492267 0.181069746222742 0.182606662628196 12.459436034934 12.4582599208895 2455362.845064229 109.2239114927 38811.5927556158 18.608377871495 -9.16102920804854 193141.321946539 T 8 CATAB v2.0g-lin.ifort 2021-Apr-15 21:14:53 2021-Apr-15 21:14
2011-Oct-12 11:24 01:33 Jupiter 1.87373082912258 1.87368106502668 1.87378061318598 2.07632001623072 1.84580663997832 2455846.974919782 92.8461576431418 10585.9860633895 102.865028866339 82.2276589071194 1135184.79402652 T 8 CATAB v2.0g-lin.ifort 2021-Apr-15 21:14:53 2021-Apr-15 21:14
2013-Jun-06 06:34 03:17 Earth 0.0970792930747819 0.0962165648996036 0.0979423889466084 9.82684997804756 9.82405657786735 2456449.773655830 197.06891198428 44049.5390717576 12.9807117636447 -12.4003777379026 203888.704975761 T 8 CATAB v2.0g-lin.ifort 2021-Apr-15 21:14:53 2021-Apr-15 21:14
2016-May-13 13:06 06:38 Earth 0.0162444812842989 0.0158157107630302 0.0166732511265099 7.31689101541593 7.29443944410463 2457522.046144780 397.534368167481 21380.3731782737 5.83726668816472 -1.31841027317801 7283.83150211914 T 8 CATAB v2.0g-lin.ifort 2021-Apr-15 21:14:53 2021-Apr-15 21:14
2019-May-05 18:24 < 00:01 Moon 0.0087067946416077 0.00870657880870228 0.00870701047459032 8.149254452645 8.14879254526152 2458609.266441177 0.0154905257297635 10.8411298912161 1.13626762055391 6.98674013505025 169205.245663376 T 8 CATAB v2.0g-lin.ifort 2021-Apr-15 21:14:53 2021-Apr-15 21:14
2019-May-05 19:05 < 00:01 Earth 0.0063539275490303 0.00635370913069105 0.00635414596717162 7.20991006314331 7.15151143226198 2458609.295080823 0.0157910753070804 10.7459120492461 1.15402356015838 -0.352654409998728 54419.5311373822 T 8 CATAB v2.0g-lin.ifort 2021-Apr-15 21:14:53 2021-Apr-15 21:14
2022-May-11 03:56 06:52 Earth 0.0126083788460483 0.0122504091273726 0.0129671368820806 7.22002971364594 7.1907007235864 2459710.663824926 412.059709113391 18551.5160386848 6.03599983114262 15.6204666838 80474.2824405854 T 8 CATAB v2.0g-lin.ifort 2021-Apr-15 21:14:53 2021-Apr-15 21:14
2023-Oct-20 03:30 03:09 Jupiter 1.81870965104386 1.81856436274227 1.81885511514268 2.1756458180456 1.94986675751343 2460237.646152112 188.588473115315 31205.2243162728 27.6456528932174 67.5406846965091 2892797.8228383 T 8 CATAB v2.0g-lin.ifort 2021-Apr-15 21:14:53 2021-Apr-15 21:14
2025-Jun-10 03:54 04:26 Earth 0.114201954442589 0.112737531969053 0.115667048826863 10.4814154618235 10.4791892575709 2460836.662466728 266.134508970967 74336.5302220583 15.4964794593082 -10.7549193401304 175132.560503837 T 8 CATAB v2.0g-lin.ifort 2021-Apr-15 21:14:53 2021-Apr-15 21:14
2028-Jun-21 02:19 03:26 Earth 0.225270750073864 0.223341645991583 0.227200104633557 14.0348463654836 14.0340035879915 2461943.596572310 205.776552114736 96929.395211527 23.9481328719114 -7.04680279205215 145929.081554475 T 8 CATAB v2.0g-lin.ifort 2021-Apr-15 21:14:53 2021-Apr-15 21:14
2031-Jul-01 11:51 03:04 Earth 0.36334928473578 0.361152537744304 0.365546164638594 18.2043919855008 18.2039891602614 2463048.994057530 183.6742670613 110092.961900245 33.1282034794498 -5.72730123016681 141674.526149061 T 8 CATAB v2.0g-lin.ifort 2021-Apr-15 21:14:53 2021-Apr-15 21:14
2034-Jul-08 18:48 02:56 Earth 0.497110695483376 0.494748597858504 0.499472887691968 22.0435852491782 22.0433420963005 2464152.283437066 176.096385070339 118285.872770231 40.6279970113146 -5.25379163247976 148288.799099856 T 8 CATAB v2.0g-lin.ifort 2021-Apr-15 21:14:53 2021-Apr-15 21:14
2035-Dec-23 03:50 05:20 Jupiter 1.84665282532252 1.84643389680205 1.84687191749352 2.1831452765989 1.96182657814013 2464684.660033877 320.017051101374 30971.3667499891 44.673744723202 -72.5739994514249 2983136.91347986 T 8 CATAB v2.0g-lin.ifort 2021-Apr-15 21:14:53 2021-Apr-15 21:14
2107-Mar-14 17:46 07:50 Earth 0.454858682655574 0.448754691557857 0.460963098981443 20.2686727003854 20.2683836898635 2490698.240042119 469.767663103554 305180.978020265 16.5409256460406 4.1355444166092 258132.012523362 T 8 CATAB v2.0g-lin.ifort 2021-Apr-15 21:14:53 2021-Apr-15 21:14
2110-Mar-28 10:32 10:14 Earth 0.234211381044134 0.228347507646719 0.240076674745252 13.5388796963056 13.5380393948607 2491807.939056729 614.481818345984 293854.006156376 16.7433513393062 5.65350806556924 170766.902453244 T 8 CATAB v2.0g-lin.ifort 2021-Apr-15 21:14:53 2021-Apr-15 21:14
2113-Apr-24 09:32 1_04:49 Earth 0.0389633155676166 0.0359256449752736 0.0420134477656241 7.31478186854738 7.30542710388605 2492930.897253341 1729.19998920613 155718.629041411 6.49162366164723 -12.9642633671318 176843.834320235 T 8 CATAB v2.0g-lin.ifort 2021-Apr-15 21:14:53 2021-Apr-15 21:14
2116-Jun-02 17:57 14:25 Earth 0.0855971792178197 0.0825079517200845 0.0886882778788165 8.67948104876198 8.67589390403902 2494066.248236251 865.061285161556 155381.391062405 10.8813682213286 -7.49734809735389 127004.274198369 T 8 CATAB v2.0g-lin.ifort 2021-Apr-15 21:14:53 2021-Apr-15 21:14
2119-Jun-23 18:31 02:44 Earth 0.257203573485177 0.255699526696692 0.258707708167156 14.4425444638645 14.4418271612227 2495182.271567550 164.088299120741 75376.7540108322 25.3470247403402 -5.73929121345363 126532.197531711 T 8 CATAB v2.0g-lin.ifort 2021-Apr-15 21:14:53 2021-Apr-15 21:14
2122-Jul-04 15:04 01:18 Earth 0.432733134679531 0.431795410138325 0.433670896594689 19.6206502068066 19.6203363856028 2496289.127528461 77.8900186028602 47189.5223125492 34.7623382358652 -7.73188375404656 217056.766548852 T 8 CATAB v2.0g-lin.ifort 2021-Apr-15 21:14:53 2021-Apr-15 21:14
2154-Jan-28 21:55 2_04:57 Jupiter 1.88388770077138 1.88118310246231 1.88662592849216 2.15189612583249 1.93169063154052 2507820.413087430 3177.48953820528 442690.586535054 85.7940727013059 69.1953915661028 2151967.71524641 T 8 CATAB v2.0g-lin.ifort 2021-Apr-15 21:14:53 2021-Apr-15 21:14
2166-Mar-29 02:07 3_01:25 Jupiter 1.8164410615346 1.8156891888129 1.81723656653221 2.19435153435017 1.97042152618211 2512262.587892764 4404.77890768771 471484.50803064 37.2405428932731 84.710104155421 2095082.44044103 T 8 CATAB v2.0g-lin.ifort 2021-Apr-15 21:14:53 2021-Apr-15 21:14
2178-May-25 12:20 4_04:40 Jupiter 1.85529180024045 1.85189951135098 1.8587150511429 2.19127546080783 1.97195333623353 2516703.013751169 6039.75388291284 434546.317291336 50.1409345440408 -65.7152296574287 2147943.7952652 T 8 CATAB v2.0g-lin.ifort 2021-Apr-15 21:14:53 2021-Apr-15 21:14
Ephemeris | Orbit Diagram | Orbital Elements | Mission Design | Physical Parameters | Close-Approach Data ]
ABOUT SSD CREDITS/AWARDS PRIVACY/COPYRIGHT GLOSSARY LINKS
FirstGov 2021-May-06 13:06 UT
(server date/time)  
NASA Home Page
Site Manager:   Ryan S. Park
Webmaster  Alan B. Chamberlin